Asyut, Egypt

9:42 AM EET on October 18, 2017 (GMT +0200)
Asyut

Weather History for HEAT - September, 2013

Change the Weather History Date:

Wednesday, September 18, 2013

  Actual Average Record
Temperature  
Mean Temperature 86 °F -  
Max Temperature 103 °F 90 °F - ()
Min Temperature 70 °F 63 °F - ()
Cooling Degree Days 22    
Growing Degree Days 36 (Base 50)    
Moisture  
Dew Point 56 °F    
Average Humidity 36    
Maximum Humidity 73    
Minimum Humidity 12    
Precipitation  
Precipitation 0.00 in 0.00 in - ()
Sea Level Pressure  
Sea Level Pressure 29.86 in    
Wind  
Wind Speed 2 mph ()    
Max Wind Speed 9 mph    
Max Gust Speed -    
Visibility 6.0 miles    
Events      
T = Trace of Precipitation, MM = Missing Value Source: Averaged Metar Reports

Daily Weather History Graph

Daily Weather History Graph

Search for Another Location

Airport or City:

Trip Planner

Search our weather history database for the weather conditions in past years. The results will help you decide how hot, cold, wet, or windy it might be!

Date:

Astronomy

Sep. 18, 2013 Rise Set
Actual Time 5:42 AM EET 5:57 PM EET
Civil Twilight 5:19 AM EET 6:20 PM EET
Nautical Twilight 4:52 AM EET 6:47 PM EET
Astronomical Twilight 4:24 AM EET 7:14 PM EET
Moon 5:07 PM EET 4:26 AM EET
Length of Visible Light 13h 00m
Length of Day
12h 14m
Waxing Gibbous, 99% of the Moon is Illuminated
Sep 18
Waxing Gibbous
Sep 19
Full
Sep 27
Last Quarter
Oct 5
New
Oct 12
First Quarter

Hourly Weather History & Observations

Time (EET) Temp. Heat Index Dew Point Humidity Pressure Visibility Wind Dir Wind Speed Gust Speed Precip Events Conditions
12:00 AM 77.0 °F - 59.0 °F 54% 29.89 in - West 1.2 mph - N/A   Clear
1:00 AM 75.2 °F - 59.0 °F 57% 29.86 in - WSW 1.2 mph - N/A   Clear
2:00 AM 75 °F - 57 °F 43% 29.85 in 6 mi SW 1.2 mph - -  
2:00 AM 75.2 °F - 57.2 °F 53% 29.89 in - SW 1.2 mph - N/A   Clear
3:00 AM 73.4 °F - 57.2 °F 57% 29.89 in - WSW 2.3 mph - N/A   Clear
4:00 AM 73.4 °F - 57.2 °F 57% 29.89 in - WSW 1.2 mph - N/A   Clear
5:00 AM 71.6 °F - 55.4 °F 57% 29.86 in - NE 1.2 mph - N/A   Clear
6:00 AM 69.8 °F - 60.8 °F 73% 29.89 in - South 1.2 mph - N/A   Clear
7:00 AM 71.6 °F - 55.4 °F 57% 29.89 in - South 1.2 mph - N/A   Clear
8:00 AM 79 °F - 54 °F 31% 29.87 in 6 mi SW 1.2 mph - -  
8:00 AM 78.8 °F - 53.6 °F 42% 29.89 in - SW 1.2 mph - N/A   Clear
9:00 AM 86.0 °F 84.2 °F 53.6 °F 33% 29.92 in - Calm Calm - N/A   Clear
10:00 AM 87.8 °F 86.1 °F 55.4 °F 33% 29.92 in - Calm Calm - N/A   Clear
11:00 AM 95.0 °F 94.4 °F 59.0 °F 30% 29.92 in - NW 5.8 mph - N/A   Clear
12:00 PM 96.8 °F 95.8 °F 57.2 °F 27% 29.89 in - NW 6.9 mph - N/A   Clear
1:00 PM 98.6 °F 97.6 °F 57.2 °F 25% 29.86 in - NW 9.2 mph - N/A   Clear
2:00 PM 102 °F - 53 °F 12% 29.78 in 6 mi NNW 9.2 mph - -  
2:00 PM 102.2 °F 100.4 °F 53.6 °F 20% 29.83 in - NNW 9.2 mph - N/A   Clear
3:00 PM 102.2 °F - 50.0 °F 17% 29.83 in - NNW 9.2 mph - N/A   Clear
4:00 PM 102.2 °F - 50.0 °F 17% 29.83 in - NNW 8.1 mph - N/A   Clear
5:00 PM 102.2 °F - 50.0 °F 17% 29.83 in - NNW 6.9 mph - N/A   Clear
6:00 PM 100.4 °F - 50.0 °F 18% 29.83 in - NNW 5.8 mph - N/A   Clear
7:00 PM 98.6 °F - 50.0 °F 19% 29.83 in - NW 4.6 mph - N/A   Clear
8:00 PM 91 °F - 58 °F 23% 29.80 in 6 mi West 1.2 mph - -  
8:00 PM 91.4 °F 90.7 °F 59.0 °F 34% 29.86 in - West 1.2 mph - N/A   Clear
9:00 PM 89.6 °F 88.9 °F 59.0 °F 36% 29.86 in - WNW 1.2 mph - N/A   Clear
10:00 PM 87.8 °F 87.1 °F 59.0 °F 38% 29.86 in - Calm Calm - N/A   Clear
11:00 PM 82.4 °F 81.7 °F 55.4 °F 39% 29.86 in - Calm Calm - N/A   Clear